Regional Weather Roundup
Issued by NWS Kansas City/Pleasant Hill, MO

Home | Current Version | Previous Version | Text Only | Print | Product List | Glossary On
Versions: 1 2 3 4 5 6 7 8 9 10 11 12 13 14 15 16 17 18 19 20 21 22 23 24 25 26 27 28
000
ASUS43 KEAX 101610
RWREAX

WEATHER ROUNDUP FOR EASTERN KANSAS AND NORTHWEST MISSOURI
NATIONAL WEATHER SERVICE KANSAS CITY/PLEASANT HILL MO
1000 AM CST SUN DEC 10 2017

KSZ040-057-103>105-MOZ028-029-037-043-101700-
...KANSAS CITY METROPOLITAN AREA...

CITY           SKY/WX    TMP DP  RH WIND       PRES   REMARKS
K.C. INTL      MOSUNNY   45  23  42 NW12G20   30.11R
K.C. DOWNTOWN  SUNNY     46  23  40 W12G17    30.12R
LEES SUMMIT    SUNNY     45  24  43 W14G23    30.12R
OLATHE - IXD   SUNNY     45  23  42 NW15      30.15R
OLATHE - OJC   SUNNY     43  22  43 NW12G18   30.13R
LAWRENCE       SUNNY     45  24  43 W10       30.15R

$$

MOZ001>008-011>017-020>025-030>033-038>040-044>046-053-054-101700-
...NORTHERN AND CENTRAL MISSOURI...

CITY           SKY/WX    TMP DP  RH WIND       PRES   REMARKS
ST. JOSEPH     CLOUDY    45  26  47 NW17      30.12R
MOSBY          CLOUDY    43  25  49 W9        30.11R
WARRENSBURG    SUNNY     41  25  52 W9        30.11R
WHITEMAN AFB   MOSUNNY   43  22  44 W10       30.06R
CLINTON        SUNNY     41  25  52 W9        30.14R
SEDALIA        SUNNY     43  26  51 W12       30.11R
WARSAW         NOT AVBL
CHILLICOTHE      N/A     41  25  53 NW12G20   30.08R WCI  34
KIRKSVILLE     SUNNY     36  25  64 NW12      30.02R WCI  28

$$

MOZ041-047>049-056>058-063>065-088>090-097-101700-
...EASTERN AND SOUTHERN MISSOURI...

CITY           SKY/WX    TMP DP  RH WIND       PRES   REMARKS
ST. LOUIS INTL MOSUNNY   38  21  50 SW14      30.04F WCI  30
SPIRIT OF STL  MOSUNNY   39  22  50 W16       30.04F WCI  30
COLUMBIA       CLOUDY    41  24  51 W14G23    30.06R WCI  33
JEFFERSON CITY SUNNY     42  24  49 W14       30.09R WCI  35
ROLLA          SUNNY     40  23  50 SW12      30.08R WCI  33
OSAGE BEACH    SUNNY     43  24  47 W12G18    30.12R
SPRINGFIELD    SUNNY     46  23  40 W14       30.14S
BRANSON        SUNNY     48  23  37 W16G25    30.16F
JOPLIN         SUNNY     43  25  49 W12       30.20R
WEST PLAINS    SUNNY     41  22  46 SW12G20   30.14F WCI  34

$$

IAZ060-094-KSZ022-034>040-054-083-096-NEZ052-066-093-101700-
...KANSAS...SOUTHEAST NEBRASKA AND IOWA...

CITY           SKY/WX    TMP DP  RH WIND       PRES   REMARKS
TOPEKA         SUNNY     44  23  43 W7        30.16R
MANHATTAN      SUNNY     51  20  29 NW8       30.18R
EMPORIA        SUNNY     49  19  30 NW13      30.18R
CHANUTE        SUNNY     46  22  38 NW12      30.19R
WICHITA        SUNNY     52  16  24 NW17      30.24R
OMAHA          MOSUNNY   44  26  49 N20       30.10R
LINCOLN        SUNNY     45  21  38 NW15      30.14R
FALLS CITY     CLOUDY    46  23  40 NW15      30.12R
LAMONI         SUNNY     39  25  57 NW17      30.02S WCI  30
DES MOINES     CLOUDY    38  25  59 NW16G25   30.02R WCI  29

$$





USA.gov is the U.S. government's official web portal to all federal, state and local government web resources and services.